Weather History for KMEM - November, 2011

Change the Weather History Date:

Tuesday, November 29, 2011

  Actual Average Record
Temperature  
Mean Temperature 37 °F 48 °F  
Max Temperature 42 °F 57 °F 78 °F (1927)
Min Temperature 31 °F 39 °F 18 °F (1959)
Degree Days  
Heating Degree Days 28 17  
Month to date heating degree days 266 351  
Since 1 July heating degree days 410 482  
Cooling Degree Days 0 0  
Month to date cooling degree days 24 11  
Year to date cooling degree days 2564 2254  
Moisture  
Dew Point 32 °F    
Average Humidity 83    
Maximum Humidity 96    
Minimum Humidity 70    
Precipitation  
Precipitation 0.12 in 0.22 in 2.46 in (2001)
Month to date precipitation 7.71 5.28  
Year to date precipitation 49.81 47.73  
Snow  
Snow T in 0.00 in T in (2011)
Month to date snowfall 0.1 0.0  
Since 1 July snowfall 0.1 0.0  
Since 1 September snowfall 0.1 0.0  
Snow Depth -    
Sea Level Pressure  
Sea Level Pressure 29.97 in    
Wind  
Wind Speed 9 mph (NW)    
Max Wind Speed 21 mph    
Max Gust Speed 28 mph    
Visibility 7 miles    
Events Rain , Snow    
T = Trace of Precipitation, MM = Missing Value Source: NWS Daily Summary

Daily Weather History Graph

Daily Weather History Graph

Search for Another Location

Airport or City:

Trip Planner

Search our weather history database for the weather conditions in past years. The results will help you decide how hot, cold, wet, or windy it might be!

Date:

Astronomy

Nov. 29, 2011 Rise Set
Actual Time 6:47 AM CST 4:48 PM CST
Civil Twilight 6:20 AM CST 5:16 PM CST
Nautical Twilight 5:48 AM CST 5:47 PM CST
Astronomical Twilight 5:18 AM CST 6:17 PM CST
Moon 10:38 AM CST (11/29) 9:37 PM CST (11/29)
Length of Visible Light 10h 56m
Length of Day
10h 00m
Waxing Crescent, 24% of the Moon is Illuminated
Nov 29
Waxing Crescent
Dec 2
First Quarter
Dec 10
Full
Dec 17
Last Quarter
Dec 24
New

Hourly Weather History & Observations

Time (CST) Temp. Windchill Dew Point Humidity Pressure Visibility Wind Dir Wind Speed Gust Speed Precip Events Conditions
12:54 AM 35.1 °F 25.5 °F 32.0 °F 89% 29.80 in 2.0 mi WNW 15.0 mph 21.9 mph 0.00 in Rain Light Rain
1:54 AM 34.0 °F 23.8 °F 32.0 °F 92% 29.81 in 2.0 mi WNW 16.1 mph 23.0 mph 0.01 in Snow Light Snow
2:54 AM 34.0 °F 24.6 °F 32.0 °F 92% 29.78 in 2.0 mi WNW 13.8 mph - 0.02 in Snow Light Snow
3:54 AM 34.0 °F 25.0 °F 32.0 °F 92% 29.81 in 2.0 mi WNW 12.7 mph 19.6 mph 0.02 in Snow Light Snow
4:54 AM 34.0 °F 26.0 °F 32.0 °F 92% 29.81 in 2.0 mi WNW 10.4 mph - 0.03 in Snow Light Snow
5:54 AM 33.8 °F 24.3 °F 32.0 °F 93% 29.82 in 2.0 mi WNW 13.8 mph - N/A Snow Light Snow
6:54 AM 35.1 °F 26.9 °F 33.1 °F 92% 29.85 in 2.0 mi NW 11.5 mph 20.7 mph 0.02 in Snow Light Snow
7:54 AM 36.0 °F 27.5 °F 33.1 °F 89% 29.89 in 2.0 mi NW 12.7 mph 20.7 mph 0.00 in Rain Light Rain
8:15 AM 37.4 °F 30.8 °F 33.8 °F 87% 29.89 in 2.0 mi NW 9.2 mph - 0.00 in   Overcast
8:38 AM 37.4 °F 30.3 °F 33.8 °F 87% 29.89 in 10.0 mi NW 10.4 mph 19.6 mph 0.00 in   Overcast
8:54 AM 37.0 °F 29.8 °F 33.1 °F 86% 29.92 in 10.0 mi NW 10.4 mph - 0.00 in   Overcast
9:54 AM 37.9 °F 29.2 °F 32.0 °F 79% 29.95 in 10.0 mi NNW 15.0 mph 21.9 mph N/A   Overcast
10:54 AM 39.0 °F 31.0 °F 30.9 °F 73% 29.97 in 10.0 mi NNW 13.8 mph 23.0 mph N/A   Overcast
11:54 AM 39.9 °F 32.9 °F 32.0 °F 73% 29.99 in 10.0 mi NNW 11.5 mph 20.7 mph N/A   Overcast
12:54 PM 39.9 °F 32.5 °F 32.0 °F 73% 29.98 in 10.0 mi NNW 12.7 mph 20.7 mph N/A   Overcast
1:54 PM 41.0 °F 34.3 °F 33.1 °F 73% 30.00 in 10.0 mi NNW 11.5 mph - N/A   Overcast
2:54 PM 41.0 °F 35.8 °F 33.1 °F 73% 30.03 in 10.0 mi NNW 8.1 mph - N/A   Overcast
3:30 PM 41.0 °F 33.5 °F 33.8 °F 76% 30.04 in 10.0 mi NNW 13.8 mph 18.4 mph N/A   Overcast
3:54 PM 41.0 °F 34.3 °F 33.1 °F 73% 30.06 in 10.0 mi NNW 11.5 mph - N/A   Overcast
4:54 PM 41.0 °F 37.1 °F 33.1 °F 73% 30.08 in 10.0 mi NNW 5.8 mph - N/A   Mostly Cloudy
5:54 PM 41.0 °F 39.0 °F 32.0 °F 70% 30.10 in 10.0 mi NW 3.5 mph - N/A   Mostly Cloudy
6:54 PM 39.9 °F - 30.9 °F 70% 30.12 in 10.0 mi Calm Calm - N/A   Clear
7:54 PM 37.4 °F - 32.0 °F 81% 30.12 in 10.0 mi Calm Calm - N/A   Clear
8:54 PM 35.1 °F - 32.0 °F 89% 30.15 in 10.0 mi Calm Calm - N/A   Clear
9:54 PM 35.6 °F - 32.0 °F 87% 30.15 in 10.0 mi Calm Calm - N/A   Clear
10:54 PM 32.0 °F 28.7 °F 30.0 °F 92% 30.16 in 10.0 mi WSW 3.5 mph - N/A   Clear
11:54 PM 33.1 °F - 30.9 °F 92% 30.15 in 10.0 mi Calm Calm - N/A   Scattered Clouds